[[{"header":{"parameterUnit":"m.s-1","parameterCategory":1,"la1":30.2991,"la2":30.254,"lo1":-89.0895,"lo2":-89.0444,"dy":0.0017,"dx":0.0017,"nx":28,"ny":28,"refTime":"2025-01-17T03:00:00:Z","depth":0,"parameterNumber":2,"parameterNumberName":"U-component_of_WINDS"},"data":[0,0,0,0,0,0,0,0,0,0,0,0,0,0,0,0,0,0,0,0,0,0,0,0,0,0,0,0,0,0,0,0,0,0,0,0,0,0,0,0,0,0,0,0,0,0,0,0,0,0,0,0,0,0,0,0,0,0,-1.4661,-1.4661,0,-1.4656,-1.4656,-1.4656,-1.4651,-1.4651,-1.4651,-1.4651,-1.4646,-1.4645,-1.4645,0,0,0,0,0,0,0,0,0,0,0,0,0,-1.4668,-1.4667,-1.4661,-1.4661,-1.4661,-1.4656,-1.4656,-1.4656,-1.4652,-1.4651,-1.4651,-1.4651,-1.4646,-1.4645,-1.4645,0,0,0,0,0,0,0,0,0,0,0,0,0,-1.4664,-1.4667,-1.4661,-1.4658,-1.4658,-1.4656,-1.4656,-1.4656,-1.4652,-1.4651,-1.4651,-1.4651,-1.4646,-1.4645,-1.4645,-1.4645,0,0,-1.4645,-1.4645,0,0,0,0,0,0,0,0,-1.4664,-1.4664,-1.4659,-1.4659,-1.4658,-1.4654,-1.4656,-1.4652,-1.4652,-1.4654,-1.4651,-1.4651,-1.4648,-1.4648,-1.4647,-1.4645,-1.4645,-1.4645,-1.4645,-1.4645,-1.4645,0,0,0,0,0,0,0,-1.4664,-1.4664,-1.4659,-1.4659,-1.4658,-1.4657,-1.4657,-1.4655,-1.4652,-1.4654,-1.4653,-1.4653,-1.4648,-1.4647,-1.4647,-1.4645,-1.4645,-1.4645,-1.4644,-1.4644,-1.4643,-1.4643,0,0,0,0,0,0,-1.4665,-1.4664,-1.4659,-1.4659,-1.4661,-1.4657,-1.4657,-1.4656,-1.4652,-1.4651,-1.4653,-1.4653,-1.4648,-1.4647,-1.4647,-1.4647,-1.4645,-1.4644,-1.4644,-1.4643,-1.4643,-1.4643,0,0,0,0,0,0,-1.4665,-1.4665,-1.4659,-1.4661,-1.4661,-1.4657,-1.4656,-1.4656,-1.4655,-1.4651,-1.465,-1.4653,-1.4648,-1.4647,-1.4646,-1.4646,-1.4644,-1.4644,-1.4643,-1.4643,-1.4643,-1.4646,0,0,0,0,0,0,-1.4665,-1.4665,-1.4665,-1.4661,-1.4661,-1.4659,-1.4656,-1.4655,-1.4654,-1.4654,-1.4651,-1.465,-1.4648,-1.4646,-1.4646,-1.4646,-1.4644,-1.4642,-1.4643,-1.4643,-1.4646,-1.4647,-1.4647,0,0,0,0,0,-1.4666,-1.4666,-1.4665,-1.4664,-1.4661,-1.4659,-1.4658,-1.4655,-1.4654,-1.4654,-1.4652,-1.465,-1.4646,-1.4646,-1.4645,-1.4646,-1.4642,-1.4643,-1.4643,-1.4646,-1.4647,-1.4647,0,0,0,0,0,0,-1.4669,-1.4665,-1.4664,-1.4663,-1.4661,-1.4658,-1.4658,-1.4656,-1.4654,-1.4654,-1.4651,-1.465,-1.4649,-1.4647,-1.4647,-1.4646,-1.4644,-1.4644,-1.4647,-1.4647,-1.4648,-1.4648,-1.4644,0,0,0,0,0,-1.467,-1.4669,-1.4666,-1.4665,-1.4664,-1.4661,-1.466,-1.4659,-1.4656,-1.4655,-1.4653,-1.4651,-1.4649,-1.4648,-1.4647,-1.4646,-1.4645,-1.4646,-1.4646,-1.4647,-1.4647,-1.4646,-1.4647,-1.4643,-1.4643,-1.4643,0,0,-1.4671,-1.4669,-1.4669,-1.4666,-1.4664,-1.4663,-1.4661,-1.4659,-1.4659,-1.4655,-1.4654,-1.4652,-1.465,-1.4649,-1.4648,-1.4647,-1.4648,-1.4647,-1.4647,-1.4647,-1.4646,-1.4647,-1.4647,-1.4643,-1.4643,-1.4643,0,0,-1.4674,-1.4672,-1.4671,-1.467,-1.4667,-1.4665,-1.4665,-1.4662,-1.4661,-1.4659,-1.4657,-1.4656,-1.4653,-1.4651,-1.465,-1.4652,-1.465,-1.4651,-1.4653,-1.4653,-1.4653,-1.4653,-1.4654,-1.4654,-1.4651,-1.4651,-1.4651,0,-1.4676,-1.4674,-1.4671,-1.467,-1.4669,-1.4666,-1.4666,-1.4664,-1.4661,-1.466,-1.466,-1.4656,-1.4654,-1.4653,-1.4653,-1.4652,-1.4652,-1.4651,-1.4653,-1.4653,-1.4653,-1.4654,-1.4654,-1.4651,-1.4651,-1.4651,-1.4651,0,-1.4677,-1.4675,-1.4675,-1.4673,-1.4671,-1.4671,-1.4668,-1.4667,-1.4665,-1.4663,-1.4662,-1.466,-1.4658,-1.4657,-1.4655,-1.4656,-1.4655,-1.4654,-1.4652,-1.4654,-1.4654,-1.4654,-1.4652,-1.4652,-1.4652,-1.4652,0,0,-1.468,-1.4677,-1.4676,-1.4675,-1.4672,-1.4671,-1.467,-1.4668,-1.4668,-1.4666,-1.4665,-1.4663,-1.4662,-1.466,-1.4658,-1.4658,-1.4659,-1.4657,-1.4656,-1.4657,-1.4659,-1.466,-1.466,-1.4658,-1.4658,-1.4658,-1.4659,0,-1.4682,-1.468,-1.4678,-1.4677,-1.4676,-1.4673,-1.4672,-1.4671,-1.4669,-1.4668,-1.4666,-1.4664,-1.4663,-1.4662,-1.4661,-1.4659,-1.466,-1.4659,-1.4657,-1.4657,-1.4658,-1.4661,-1.4661,-1.4663,-1.4659,-1.466,-1.466,0,-1.4683,-1.4682,-1.4681,-1.4678,-1.4677,-1.4677,-1.4675,-1.4673,-1.4671,-1.467,-1.4669,-1.4667,-1.4666,-1.4664,-1.4663,-1.4662,-1.4661,-1.466,-1.466,-1.466,-1.4658,-1.466,-1.4663,-1.4663,-1.466,-1.466,-1.466,0,-1.4686,-1.4684,-1.4683,-1.4682,-1.4678,-1.4678,-1.4677,-1.4674,-1.4673,-1.4672,-1.4671,-1.4669,-1.4668,-1.4667,-1.4664,-1.4663,-1.4663,-1.4661,-1.4662,-1.4662,-1.4661,-1.4661,-1.4664,-1.4661,-1.4661,-1.4661,-1.4661,0,-1.4688,-1.4687,-1.4684,-1.4683,-1.4683,-1.468,-1.4679,-1.4678,-1.4676,-1.4675,-1.4673,-1.4672,-1.4669,-1.4667,-1.4665,-1.4664,-1.4664,-1.4663,-1.4662,-1.4663,-1.4663,-1.4662,-1.4662,-1.4661,-1.4661,-1.4661,-1.4661,0,-1.4691,-1.4688,-1.4687,-1.4684,-1.4684,-1.4683,-1.4681,-1.468,-1.4678,-1.4677,-1.4677,-1.4674,-1.4672,-1.467,-1.4667,-1.4666,-1.4665,-1.4665,-1.4666,-1.4666,-1.4666,-1.4666,-1.4668,-1.4668,-1.4665,-1.4666,-1.4666,0,-1.4692,-1.4691,-1.4688,-1.4688,-1.4686,-1.4685,-1.4684,-1.4682,-1.468,-1.4678,-1.4678,-1.4676,-1.4674,-1.4672,-1.467,-1.4668,-1.4667,-1.4668,-1.4667,-1.4667,-1.4667,-1.4667,-1.4667,-1.4668,-1.4668,-1.4668,-1.4668,0,-1.4694,-1.4693,-1.4691,-1.469,-1.4688,-1.4687,-1.4685,-1.4685,-1.4682,-1.4681,-1.4679,-1.4678,-1.4676,-1.4674,-1.4672,-1.4671,-1.4669,-1.4669,-1.4669,-1.4669,-1.467,-1.4669,-1.4667,-1.4669,-1.4669,-1.4669,-1.4668,-1.4668,-1.4696,-1.4695,-1.4693,-1.4692,-1.469,-1.4689,-1.4688,-1.4686,-1.4685,-1.4683,-1.4681,-1.468,-1.4678,-1.4675,-1.4674,-1.4672,-1.4672,-1.4672,-1.4671,-1.4671,-1.4672,-1.467,-1.4672,-1.4672,-1.4672,-1.4672,-1.4672,0,-1.4698,-1.4696,-1.4695,-1.4693,-1.4691,-1.469,-1.4688,-1.4687,-1.4686,-1.4684,-1.4683,-1.4681,-1.468,-1.4677,-1.4676,-1.4675,-1.4674,-1.4675,-1.4674,-1.4674,-1.4672,-1.4673,-1.4675,-1.4675,-1.4675,-1.4675,-1.4675,-1.4675,-1.4698,-1.4697,-1.4696,-1.4694,-1.4693,-1.4691,-1.469,-1.4689,-1.4688,-1.4686,-1.4684,-1.4683,-1.4681,-1.4679,-1.4678,-1.4677,-1.4676,-1.4677,-1.4676,-1.4675,-1.4674,-1.4674,-1.4674,-1.4677,-1.4677,-1.4678,-1.4678,-1.4678]},{"header":{"parameterUnit":"m.s-1","parameterCategory":1,"la1":30.2991,"la2":30.254,"lo1":-89.0895,"lo2":-89.0444,"dy":0.0017,"dx":0.0017,"nx":28,"ny":28,"refTime":"2025-01-17T03:00:00:Z","depth":0,"parameterNumber":3,"parameterNumberName":"V-component_of_WINDS"},"data":[0,0,0,0,0,0,0,0,0,0,0,0,0,0,0,0,0,0,0,0,0,0,0,0,0,0,0,0,0,0,0,0,0,0,0,0,0,0,0,0,0,0,0,0,0,0,0,0,0,0,0,0,0,0,0,0,0,0,2.5629,2.563,0,2.5732,2.5734,2.5735,2.573,2.5728,2.5727,2.5725,2.5834,2.5838,2.5842,0,0,0,0,0,0,0,0,0,0,0,0,0,2.543,2.5434,2.5629,2.563,2.5632,2.5732,2.5734,2.5735,2.573,2.5728,2.5726,2.5725,2.5832,2.5837,2.5842,0,0,0,0,0,0,0,0,0,0,0,0,0,2.5523,2.5435,2.5629,2.5641,2.5643,2.5732,2.5734,2.5735,2.573,2.5728,2.5726,2.5724,2.583,2.5837,2.5843,2.5927,0,0,2.5863,2.5865,0,0,0,0,0,0,0,0,2.5518,2.5531,2.5638,2.564,2.5643,2.5716,2.5703,2.58,2.5731,2.5697,2.5725,2.5723,2.5796,2.5805,2.583,2.5932,2.5937,2.5863,2.5867,2.587,2.5872,0,0,0,0,0,0,0,2.5511,2.5526,2.567,2.5639,2.5643,2.5642,2.5653,2.5721,2.5758,2.57,2.57,2.5712,2.5797,2.5824,2.5832,2.5938,2.5863,2.5869,2.5873,2.5875,2.6118,2.612,0,0,0,0,0,0,2.5502,2.5521,2.5667,2.5673,2.5574,2.5648,2.566,2.5695,2.5757,2.5765,2.5714,2.5711,2.5814,2.5825,2.5836,2.5941,2.587,2.5876,2.5879,2.6115,2.6118,2.6121,0,0,0,0,0,0,2.5498,2.5515,2.5662,2.5597,2.5616,2.5654,2.5693,2.5698,2.5724,2.5768,2.5774,2.5734,2.5812,2.5827,2.5905,2.5944,2.5879,2.5884,2.6112,2.6116,2.612,2.6149,0,0,0,0,0,0,2.5492,2.5513,2.5545,2.5598,2.5619,2.5729,2.5695,2.5702,2.5735,2.5733,2.5788,2.5795,2.5812,2.5895,2.5911,2.5952,2.5889,2.6109,2.6114,2.6118,2.6145,2.6154,2.6161,0,0,0,0,0,2.5485,2.5549,2.5547,2.5564,2.5659,2.5731,2.5743,2.576,2.5738,2.5771,2.5799,2.5794,2.5937,2.5903,2.5921,2.5964,2.6106,2.6112,2.6118,2.6141,2.6152,2.6161,0,0,0,0,0,0,2.5501,2.5556,2.5554,2.5637,2.5679,2.573,2.5772,2.5771,2.5821,2.5817,2.5836,2.5849,2.5927,2.5953,2.5915,2.605,2.6019,2.6029,2.6031,2.6041,2.6049,2.6042,2.5895,0,0,0,0,0,2.5513,2.5566,2.5612,2.5681,2.5702,2.5733,2.5765,2.5775,2.5819,2.5838,2.5871,2.5916,2.5971,2.6007,2.606,2.6148,2.6162,2.6187,2.6195,2.6201,2.621,2.6261,2.6273,2.614,2.614,2.614,0,0,2.5541,2.5578,2.561,2.5685,2.5719,2.5775,2.5749,2.5808,2.585,2.5847,2.5923,2.5949,2.6,2.6084,2.6123,2.6108,2.625,2.6209,2.6213,2.6219,2.6268,2.6281,2.6292,2.6144,2.6144,2.6143,0,0,2.562,2.5653,2.5715,2.5749,2.5801,2.5821,2.5836,2.5887,2.5905,2.5981,2.5981,2.6031,2.6125,2.6162,2.6194,2.6288,2.6286,2.6305,2.6348,2.6397,2.6408,2.6417,2.6453,2.6466,2.6313,2.6313,2.6313,0,2.5649,2.5731,2.5747,2.5807,2.5841,2.584,2.5905,2.5937,2.6004,2.6028,2.601,2.613,2.6164,2.6258,2.6281,2.6306,2.6325,2.6299,2.6405,2.6414,2.6423,2.6458,2.6471,2.6315,2.6315,2.6315,2.6315,0,2.5765,2.5822,2.5866,2.5931,2.5969,2.6031,2.6057,2.6095,2.6101,2.6123,2.6203,2.6243,2.6306,2.6328,2.6335,2.6424,2.6414,2.64,2.637,2.6438,2.6471,2.6484,2.6318,2.6318,2.6317,2.6316,0,0,2.5857,2.593,2.5946,2.5976,2.6033,2.6079,2.6141,2.6201,2.6234,2.628,2.6335,2.6415,2.6403,2.6439,2.645,2.6493,2.6568,2.6474,2.6476,2.6492,2.6671,2.6682,2.6697,2.6566,2.6569,2.6571,2.6668,0,2.5944,2.6054,2.6071,2.6168,2.6223,2.6224,2.6278,2.632,2.6343,2.6394,2.6419,2.6477,2.6456,2.6478,2.652,2.655,2.6605,2.6543,2.6619,2.6621,2.6608,2.6714,2.6726,2.6816,2.668,2.6683,2.6684,0,2.606,2.611,2.6213,2.6264,2.6288,2.6337,2.6395,2.6442,2.649,2.6504,2.6544,2.655,2.6617,2.6582,2.6675,2.6633,2.6665,2.6684,2.6688,2.6698,2.6658,2.6729,2.6844,2.6859,2.6704,2.6703,2.6701,0,2.612,2.6212,2.6287,2.6312,2.6373,2.6408,2.6435,2.6481,2.6517,2.6568,2.6592,2.6649,2.6682,2.6727,2.6749,2.6721,2.6842,2.6808,2.6857,2.6857,2.6884,2.6882,2.7009,2.6901,2.6901,2.6901,2.69,0,2.6217,2.6281,2.6315,2.6361,2.6433,2.6451,2.6522,2.6549,2.659,2.6642,2.6645,2.6694,2.672,2.6773,2.6791,2.6867,2.6881,2.6895,2.69,2.6896,2.6895,2.6919,2.6914,2.6904,2.6903,2.6903,2.6902,0,2.6297,2.6322,2.6403,2.6455,2.6469,2.652,2.6565,2.661,2.6633,2.6699,2.6716,2.6752,2.6815,2.6841,2.6918,2.693,2.7018,2.7017,2.7002,2.7004,2.7052,2.7048,2.72,2.7222,2.7098,2.7099,2.71,0,2.6358,2.6407,2.6464,2.6499,2.6527,2.6583,2.662,2.664,2.6679,2.6738,2.6777,2.684,2.6892,2.6993,2.7027,2.7087,2.7088,2.7137,2.7097,2.7093,2.7092,2.7089,2.7096,2.7145,2.7146,2.7147,2.7148,0,2.6464,2.6474,2.6527,2.6585,2.6629,2.6675,2.672,2.6749,2.6776,2.682,2.6884,2.6924,2.7003,2.7067,2.7129,2.7158,2.7159,2.716,2.7175,2.7173,2.7164,2.7172,2.7025,2.7157,2.7156,2.7156,2.7155,2.7155,2.6538,2.6583,2.663,2.6689,2.6725,2.6768,2.6814,2.6842,2.6896,2.6962,2.6971,2.704,2.7089,2.7172,2.7204,2.726,2.7248,2.7269,2.7274,2.728,2.7284,2.7153,2.7271,2.7271,2.7271,2.727,2.727,0,2.6647,2.6678,2.6732,2.6795,2.6842,2.6837,2.6887,2.6927,2.6988,2.7033,2.7084,2.7159,2.7221,2.726,2.7322,2.736,2.7362,2.7376,2.7374,2.7382,2.7291,2.7272,2.7373,2.7373,2.7373,2.7373,2.7373,2.7373,2.6709,2.6785,2.6801,2.6896,2.6926,2.6994,2.7023,2.7063,2.7099,2.7183,2.7234,2.7259,2.7302,2.7368,2.7425,2.7435,2.7459,2.7474,2.7484,2.7398,2.7388,2.7378,2.7361,2.7479,2.7479,2.7571,2.7572,2.7572]}]]